This demonstration page uses our WeatherBlox Daily Observations layout. Learn more.

Left ArrowRight Arrow

47.50024, -111.30081

Hourly Observations for January 19, 2022

Temp ( °F °C ) Dew Point ( °F °C ) Humidity (%) Winds ( mph kmh ) Pressure ( in mb ) Visibility ( mi km ) Precip ( " mm )
12:41 am 00:41 Cloudy with Light Snow 4 -15.6 0 -17.8 83 83 E 6 9 30.72 1040 3 4 0.00 0.00
12:53 am 00:53 Cloudy with Light Snow 3 -16.1 -1 -18.3 83 83 ENE 5 7 30.62 1037 3 4 0.00 0.00
1:01 am 01:01 Cloudy with Light Snow 3 -16.1 -1 -18.3 83 83 E 5 7 30.73 1041 3 5 0.00 0.00
1:53 am 01:53 Cloudy with Light Snow 3 -16.1 -1 -18.3 83 83 ENE 7 11 30.62 1037 6 10 0.00 0.00
2:53 am 02:53 Cloudy with Mist and Fog 3 -16.1 -1 -18.3 83 83 E 7 11 30.63 1037 6 10 0.00 0.00
3:53 am 03:53 Cloudy 3 -16.1 -1 -18.3 83 83 E 5 7 30.63 1037 9 14 0.00 0.00
4:53 am 04:53 Cloudy 3 -16.1 -1 -18.3 83 83 ENE 5 7 30.63 1037 10 16 0.00 0.00
5:53 am 05:53 Cloudy 2 -16.7 -2 -18.9 83 83 E 6 9 30.63 1037 10 16 0.00 0.00
6:53 am 06:53 Cloudy 2 -16.7 -2 -18.9 83 83 E 8 13 30.62 1037 10 16 0.00 0.00
7:53 am 07:53 Cloudy 1 -17.2 -3 -19.4 83 83 E 8 13 30.62 1037 10 16 0.00 0.00
8:53 am 08:53 Cloudy 2 -16.7 -2 -18.9 83 83 E 8 13 30.62 1037 10 16 0.00 0.00
9:53 am 09:53 Mostly Cloudy 2 -16.7 -2 -18.9 83 83 ENE 6 9 30.62 1037 10 16 0.00 0.00
10:53 am 10:53 Sunny 6 -14.4 0 -17.8 76 76 E 7 11 30.61 1037 10 16 0.00 0.00
11:53 am 11:53 Sunny 8 -13.3 1 -17.2 73 73 undefined N/A 30.58 1036 10 16 0.00 0.00
12:53 pm 12:53 Sunny 9 -12.8 2 -16.7 73 73 ESE 7 11 30.57 1035 10 16 0.00 0.00
1:53 pm 13:53 Sunny 8 -13.3 1 -17.2 73 73 E 6 9 30.55 1035 10 16 0.00 0.00
2:53 pm 14:53 Sunny 9 -12.8 2 -16.7 73 73 E 5 7 30.55 1035 10 16 0.00 0.00
3:53 pm 15:53 Sunny 7 -13.9 0 -17.8 73 73 ESE 6 9 30.55 1035 10 16 0.00 0.00
4:53 pm 16:53 Sunny 3 -16.1 -2 -18.9 79 79 SE 3 6 30.55 1035 10 16 0.00 0.00
5:53 pm 17:53 Clear 1 -17.2 -3 -19.4 83 83 Calm 30.55 1035 10 16 0.00 0.00
6:53 pm 18:53 Clear 1 -17.2 -2 -18.9 87 87 ESE 6 9 30.53 1034 10 16 0.00 0.00
7:53 pm 19:53 Clear 3 -16.1 -1 -18.3 83 83 SSW 3 6 30.52 1034 10 16 0.00 0.00
8:53 pm 20:53 Clear 4 -15.6 -1 -18.3 80 80 Calm 30.50 1033 10 16 0.00 0.00
9:53 pm 21:53 Clear 6 -14.4 1 -17.2 79 79 SSW 7 11 30.48 1032 10 16 0.00 0.00
10:53 pm 22:53 Clear 17 -8.3 10 -12.2 74 74 SSW 14 22 30.42 1030 10 16 0.00 0.00
11:53 pm 23:53 Clear 20 -6.7 12 -11.1 71 71 SSW 15 24 30.39 1029 10 16 0.00 0.00

Powered by AerisWeather